COSMOS 1275 DEB, 42220

Orbit data source: Space-Track

COSMOS 1275 DEB, 42220 is space debris in LEO originally from a launch on Thu, 04 Jun 1981 UTC launched from the Plesetsk Missile And Space Complex (PKMTR). Debris objects in space refer to the collection of defunct objects orbiting the Earth. Examples of debris include non-operational satellites, rocket bodies, and fragments generated from explosions, collisions, or faulty payload assembly.

Loading next visibility...
Identifier
42220, 1981-053UL
Orbit
LEO
Country
Flag of CISCIS
Related business
Manufacturer
Unknown
Mission
Spacecraft
Bus & Motor
Unknown
Mass
Unknown
Launch date (UTC)
1981-06-04 (45 years ago)
Launch vehicle
Unknown
Launch site
Plesetsk Missile And Space Complex (PKMTR)
Object type
Payload
Rocket body
Debris
Shape & HBR
Unknown shape, 0.1 m
Radar Cross Section
Small (<0.1 m²)

Expand to show TLE details & history
Last TLE update: 2 days ago

TLE from 2 days ago
0 COSMOS 1275 DEB
1 42220U 81053UL  26036.43076070  .00018097  00000-0  39794-2 0  9990
2 42220  82.9034  45.2573 0018843 340.1836  19.8632 14.57302028636672
Epoch: 2026-02-05T10:20Z
TLE epoch observation values (Epoch: 2026-02-05T10:20:17.724Z)
Latitude
0.00004°
Longitude
114.60036°
Altitude
692.365 km
Speed
7.517 km/s
True Right ascension
03h 01m 01s
True Declination
0° 00' 00"
Sunlit
Object was in daylight at epoch
Visualization orbit readout
Latitude
Unknown
Longitude
Unknown
Altitude
Unknown
Speed
Unknown
Apparent Right ascension
Unknown
Apparent Declination
Unknown
Sunlit
N/A
Visualization observer readout
Local Sidereal Time
14:19:05
Azimuth
Unknown
Elevation
Unknown
Doppler factor
Unknown
Orbital elements
Apogee altitude
712.272 km
Perigee altitude
685.601 km
Semi-major axis
7,077.073 km
Eccentricity
0.00188
Inclination
82.9034°
RAAN
45.2573°
Arg. of periapsis
340.1836°
True anomaly
19.93673°
Mean anomaly
19.8632°
Eccentric anomaly
19.89995°
Mean motion
3.64555 °/min
Orbital period
98.75 mins
BSTAR
0.0039794
Loading maneuver chart data...
Computing Atmospheric mass density...
Loading historical data...
Loading historical data...
Loading historical data...
Loading historical data...
Loading historical data...
Loading historical data...
Loading historical data...

Documentation

Showing up to 5 results
|